Regional Weather Roundup
Issued by NWS Cleveland, OH

Home | Current Version | Previous Version | Graphics & Text | Print | Product List | Glossary On
Versions: 1 2 3 4 5 6 7 8 9 10 11 12 13 14 15 16 17 18 19 20 21 22 23 24 25 26 27 28 29 30 31 32 33 34 35 36 37 38 39 40 41 42 43 44 45 46 47 48 49 50
000
ASUS41 KCLE 181910
RWRCLE
OHIO REGIONAL WEATHER ROUNDUP
NATIONAL WEATHER SERVICE CLEVELAND, OH
200 PM EST SAT NOV 18 2017

NOTE: "FAIR" INDICATES FEW OR NO CLOUDS BELOW 12,000 FEET WITH NO
SIGNIFICANT WEATHER AND/OR OBSTRUCTIONS TO VISIBILITY.

OHZ001>008-015>018-024>027-034-035-043-044-182000-
   NORTHWEST OHIO

CITY           SKY/WX    TMP DP  RH WIND       PRES   REMARKS
DEFIANCE       LGT RAIN  52  50  93 SE14      29.17F FOG
FINDLAY        HVY RAIN  52  48  86 SE20      29.17F FOG
TOLEDO EXPRESS HVY RAIN  50  50 100 CALM      29.28S VSB 3/4
TOLEDO EXEC    HVY RAIN  51  50  96 CALM      29.28F VSB 3/4
LIMA           LGT RAIN  54  53  97 SE16      29.18F
$$

OHZ009>014-019>023-028>033-038-089-182000-
   NORTHEAST OHIO

CITY           SKY/WX    TMP DP  RH WIND       PRES   REMARKS
CLE-HOPKINS    LGT RAIN  51  49  92 S12G21    29.35F
CLE-LAKEFRONT  LGT RAIN  50  47  89 SE16      29.31F
CUY CO. ARPT   LGT RAIN  50  48  93 S15G21    29.35F FOG
LORAIN-ELYRIA  LGT RAIN  49  44  83 S8        29.31F
ASHTABULA      RAIN      46  45  96 S9        29.39F FOG
AKRON-CANTON   LGT RAIN  49  46  90 S9        29.39F FOG
WOOSTER        LGT RAIN  47  46  97 SE8       29.35F FOG
MANSFIELD      CLOUDY    49  48  97 SE16      29.30F
YOUNGSTOWN     RAIN      47  46  97 S9        29.40F FOG
$$

OHZ042-051>053-060>062-070>072-077>081-182000-
  SOUTHWEST OHIO

CITY           SKY/WX    TMP DP  RH WIND       PRES   REMARKS
CINC-COVINGTON CLOUDY    65  58  78 S29G43    29.29F
CINC-LUNKEN    PTSUNNY   67  58  72 S29G48    29.29F
HAMILTON       CLOUDY    66  58  75 SW14G30   29.30F
DAYTON         CLOUDY    62  58  86 SW24G33   29.27F
WRIGHT-PAT AFB CLOUDY    64  58  80 SW24G40   29.27F
DAYTON GENERAL CLOUDY    64  56  75 SW23G40   29.28F
WILMINGTON     CLOUDY    63  56  78 SW24G38   29.28F
$$

OHZ036-037-039>041-045>050-054>059-063>069-073>076-082>088-182000-
  CENTRAL AND SOUTHEAST OHIO

CITY           SKY/WX    TMP DP  RH WIND       PRES   REMARKS
COLUMBUS       CLOUDY    62  54  74 S17G25    29.33F
OSU AIRPORT    CLOUDY    60  54  80 S16G24    29.29F
BOLTON FIELD   CLOUDY    61  54  77 S17G28    29.32F
RICKENBACK AFB CLOUDY    61  54  76 SW21G36   29.32F
NEWARK         CLOUDY    59  50  72 S8        29.32F
MARION         CLOUDY    52  48  86 SE14      29.28F
LANCASTER      CLOUDY    63  54  72 S17G25    29.32F
ZANESVILLE     CLOUDY    59  47  64 S10       29.37F
NEW PHILLY     NOT AVBL
$$



USA.gov is the U.S. government's official web portal to all federal, state and local government web resources and services.